User: anonymous   Login
Location: Unspecified
(0.0000°N, 0.0000°E)
Time: 14:13:08
(UTC+00:00)
Language:

FALCON 9 R/B - Orbit

View from above orbital plane
View from above orbital plane
View from above satellite
View from above satellite

Ground track
Ground track

The orbit data is extracted from the following two-line orbital elements,

1 37253U 10066K   15089.09954735  .00014793  00000-0  12011-2 0  9999
2 37253 034.5371 111.4420 4335336 258.9356 050.8109 06.81236799104923
Epoch (UTC): 30 March 2015 02:23:20
Eccentricity: 0.4335336
inclination: 34.5371°
perigee height: 280 km
apogee height: 10472 km
right ascension of ascending node: 111.4420°
argument of perigee: 258.9356°
revolutions per day: 6.81236799
mean anomaly at epoch: 50.8109°
orbit number at epoch: 10492

The dashed part of the orbit path shows where the satellite is in the earth's shadow,  

DLR